DW8790 Maspalomas ES current weather conditions

sailwx.info

Wind from 271 at 4 knots gusting 6

Air temperature 20.0° C
Dewpoint 13.2° C

Last reported at 2015-May-25 20:50 UTC.
Time now 2015-May-25 21:36 UTC

Location: N 27°46' W 015°34'.
View on Google Maps.

See reports from other nearby stations

  
Tides and Currents Weather Stations Pressure Air Temp Water Temp Dewpoint Dewpoint Depression Visibility Wind Speed Wind Dir Waves Ship Positions
date/time (UTC)wind fromknots sea level pressurealtimeterstation pressurevisibilityair tempwater tempwave heightnotes
2015-May-25 20:50 271 4 gusting 6 20.0
2015-May-25 20:45 245 2 gusting 6 20.0
2015-May-25 20:40 287 4 gusting 7 20.0
2015-May-25 20:35 273 6 gusting 8 20.0
2015-May-25 20:30 269 6 gusting 8 20.0
2015-May-25 20:20 270 4 gusting 6 20.0
2015-May-25 20:15 286 2 gusting 7 20.0
2015-May-25 20:10 275 4 gusting 8 20.0
2015-May-25 20:05 269 5 gusting 7 20.6
2015-May-25 20:00 271 3 gusting 6 20.6
2015-May-25 19:55 259 4 gusting 8 20.6
2015-May-25 19:50 270 4 gusting 10 20.6
2015-May-25 19:45 279 5 gusting 10 20.6
2015-May-25 19:40 282 6 gusting 10 20.6
2015-May-25 19:35 267 6 gusting 10 20.6
2015-May-25 19:30 269 6 gusting 8 21.1
2015-May-25 19:25 241 6 gusting 8 21.1
2015-May-25 19:20 259 6 gusting 10 21.1
2015-May-25 19:15 255 7 gusting 10 21.1
2015-May-25 19:10 270 5 gusting 8 21.7
2015-May-25 19:05 249 5 gusting 10 21.7
2015-May-25 19:00 256 5 gusting 10 22.2
2015-May-25 18:55 262 5 gusting 11 22.2
2015-May-25 18:50 282 6 gusting 11 22.2
2015-May-25 18:45 255 5 gusting 10 22.2
2015-May-25 18:40 264 4 gusting 10 22.8
2015-May-25 18:30 262 4 gusting 10 22.8
2015-May-25 18:25 254 6 gusting 10 23.3
2015-May-25 18:20 280 4 gusting 7 23.3
2015-May-25 18:15 282 1 gusting 6 22.8
2015-May-25 18:10 254 1 gusting 6 22.8
2015-May-25 18:05 284 3 gusting 6 22.8
2015-May-25 18:00 222 0 gusting 4 22.8
2015-May-25 17:55 210 2 gusting 5 22.8
2015-May-25 17:50 235 3 gusting 5 22.8
2015-May-25 17:45 167 2 gusting 5 22.2
2015-May-25 17:40 043 22.2
2015-May-25 17:35 213 2 gusting 5 21.7
2015-May-25 17:30 157 1 gusting 2 21.7
2015-May-25 17:25 050 0 gusting 6 21.7
2015-May-25 17:20 148 1 gusting 10 21.7
2015-May-25 17:15 152 4 gusting 7 21.7
2015-May-25 17:10 180 4 gusting 7 21.7
2015-May-25 17:05 145 4 gusting 10 21.7
2015-May-25 17:00 145 4 gusting 10 21.7
2015-May-25 16:55 175 6 gusting 10 21.7
2015-May-25 16:50 179 6 gusting 10 21.7
2015-May-25 16:45 139 5 gusting 10 22.2
2015-May-25 16:40 124 6 gusting 10 22.2
2015-May-25 16:35 134 5 gusting 10 22.2
2015-May-25 16:30 135 5 gusting 8 22.2
2015-May-25 16:25 148 6 gusting 13 22.2
2015-May-25 16:20 133 7 gusting 13 21.7
2015-May-25 16:15 144 7 gusting 11 21.7
2015-May-25 16:10 132 6 gusting 11 21.7
2015-May-25 16:05 138 7 gusting 12 22.2
2015-May-25 16:00 150 6 gusting 10 22.2
2015-May-25 15:55 128 8 gusting 13 22.2
2015-May-25 15:50 119 10 gusting 13 22.2
2015-May-25 15:45 131 6 gusting 13 22.2
2015-May-25 15:40 136 9 gusting 12 22.2
2015-May-25 15:35 120 8 gusting 12 22.2
2015-May-25 15:30 120 6 gusting 11 22.2
2015-May-25 15:25 121 8 gusting 13 22.8
2015-May-25 15:20 106 8 gusting 13 22.8
2015-May-25 15:15 118 7 gusting 13 22.8
2015-May-25 15:10 129 7 gusting 10 22.8
2015-May-25 15:05 113 7 gusting 13 22.2
2015-May-25 15:00 130 6 gusting 12 22.2
2015-May-25 14:55 120 8 gusting 13 22.8
2015-May-25 14:50 123 8 gusting 13 22.8
2015-May-25 14:45 126 8 gusting 13 22.8
2015-May-25 14:40 146 6 gusting 12 22.8
2015-May-25 14:35 137 6 gusting 10 22.8
2015-May-25 14:30 136 5 gusting 13 22.2
2015-May-25 14:25 116 7 gusting 13 22.8
2015-May-25 14:20 181 6 gusting 10 22.8
2015-May-25 14:15 141 5 gusting 8 22.2
2015-May-25 14:10 145 5 gusting 10 22.2
2015-May-25 14:05 142 6 gusting 11 22.2
2015-May-25 14:00 148 7 gusting 11 22.2
2015-May-25 13:55 117 5 gusting 10 22.2
2015-May-25 13:50 153 5 gusting 10 22.2
2015-May-25 13:45 164 5 gusting 10 22.2
2015-May-25 13:40 194 6 gusting 12 22.2
2015-May-25 13:35 139 5 gusting 8 22.2
2015-May-25 13:30 190 5 gusting 10 22.2
2015-May-25 13:25 168 6 gusting 10 22.2
2015-May-25 13:20 149 5 gusting 10 21.7
2015-May-25 13:15 199 6 gusting 13 21.7
2015-May-25 13:10 199 7 gusting 13 21.7
2015-May-25 13:05 199 6 gusting 13 21.7
2015-May-25 13:00 157 6 gusting 10 21.7
2015-May-25 12:55 170 6 gusting 10 21.7
2015-May-25 12:50 185 6 gusting 12 22.2
2015-May-25 12:45 192 6 gusting 13 22.2
2015-May-25 12:40 207 7 gusting 14 21.7
2015-May-25 12:35 218 6 gusting 13 21.7
2015-May-25 12:30 199 5 gusting 10 21.7
2015-May-25 12:25 227 6 gusting 8 21.7
2015-May-25 12:20 226 6 gusting 10 21.7
2015-May-25 12:15 197 6 gusting 10 21.7
2015-May-25 12:10 192 6 gusting 12 21.7
2015-May-25 12:05 194 3 gusting 11 21.7
2015-May-25 12:00 189 6 gusting 11 21.7
2015-May-25 11:55 231 4 gusting 10 21.7
2015-May-25 11:50 194 4 gusting 10 21.7
2015-May-25 11:45 180 6 gusting 12 21.7
2015-May-25 11:40 236 6 gusting 12 21.7
2015-May-25 11:35 236 5 gusting 8 21.7
2015-May-25 11:30 231 4 gusting 7 21.1
2015-May-25 11:25 207 5 gusting 8 21.1
2015-May-25 11:20 227 6 gusting 10 21.1
2015-May-25 11:15 201 6 gusting 8 21.1
2015-May-25 11:10 218 3 gusting 7 21.1
2015-May-25 11:05 200 4 gusting 10 21.7
2015-May-25 11:00 214 4 gusting 7 21.7
2015-May-25 10:55 219 6 gusting 13 21.7
2015-May-25 10:50 204 5 gusting 8 21.7
2015-May-25 10:45 204 4 gusting 8 21.7
2015-May-25 10:40 239 6 gusting 10 21.7
2015-May-25 10:35 248 4 gusting 8 21.7
2015-May-25 10:30 250 5 gusting 7 21.7
2015-May-25 10:25 241 3 gusting 6 21.7
2015-May-25 10:20 231 5 gusting 6 21.7
2015-May-25 10:15 215 4 gusting 7 21.7
2015-May-25 10:10 197 4 gusting 7 21.7
2015-May-25 10:05 211 2 gusting 5 21.1
2015-May-25 10:00 148 2 gusting 4 21.1
2015-May-25 09:55 179 3 gusting 6 21.1
2015-May-25 09:50 120 2 gusting 6 21.1
2015-May-25 09:45 176 3 gusting 5 21.1
2015-May-25 09:40 128 2 gusting 7 21.7
2015-May-25 09:35 138 6 gusting 8 21.7
2015-May-25 09:30 120 6 gusting 10 21.7
2015-May-25 09:20 133 4 gusting 6 21.1
2015-May-25 09:15 146 4 gusting 6 21.1
2015-May-25 09:10 142 3 gusting 6 20.6
2015-May-25 09:05 140 4 gusting 7 20.6
2015-May-25 09:00 154 1 gusting 4 20.0
2015-May-25 08:55 212 1 gusting 2 20.0
2015-May-25 08:50 204 2 gusting 4 20.0
2015-May-25 08:45 227 1 gusting 4 20.0
2015-May-25 08:40 234 1 gusting 2 20.0
2015-May-25 08:35 223 1 gusting 4 20.0
2015-May-25 08:30 213 1 gusting 2 20.0
2015-May-25 08:25 120 1 gusting 2 20.0
2015-May-25 08:20 179 0 gusting 2 20.0
2015-May-25 08:15 183 20.0
2015-May-25 08:10 238 19.4
2015-May-25 08:05 344 19.4
2015-May-25 08:00 345 0 gusting 2 18.9
2015-May-25 07:55 322 1 gusting 2 18.9
2015-May-25 07:50 332 18.9
2015-May-25 07:45 332 18.9
2015-May-25 07:40 332 0 gusting 2 18.3
2015-May-25 07:35 331 1 gusting 4 18.3
2015-May-25 07:30 317 2 gusting 2 18.3
2015-May-25 07:25 346 0 gusting 2 17.8
2015-May-25 07:20 346 17.8
2015-May-25 07:15 346 0 gusting 2 17.2
2015-May-25 07:10 346 0 gusting 2 17.2
2015-May-25 07:05 346 1 gusting 2 17.2
2015-May-25 07:00 346 1 gusting 2 17.2
2015-May-25 06:55 346 17.2
2015-May-25 06:50 346 17.2
2015-May-25 06:45 346 17.2
2015-May-25 06:40 346 17.2
2015-May-25 06:35 346 17.2
2015-May-25 06:30 346 17.2
2015-May-25 06:25 346 0 gusting 2 16.7
2015-May-25 06:20 346 16.7
2015-May-25 06:15 346 0 gusting 2 16.7
2015-May-25 06:10 346 1 gusting 2 16.7
2015-May-25 06:05 346 0 gusting 2 17.2
2015-May-25 06:00 346 0 gusting 2 17.2
2015-May-25 05:55 346 1 gusting 2 17.2
2015-May-25 05:50 340 0 gusting 2 16.7
2015-May-25 05:45 340 1 gusting 2 17.2
2015-May-25 05:40 340 1 gusting 2 16.7
2015-May-25 05:35 340 0 gusting 1 17.2
2015-May-25 05:30 340 0 gusting 2 17.2
2015-May-25 05:25 344 0 gusting 2 17.2
2015-May-25 05:20 339 0 gusting 2 17.2
2015-May-25 05:15 339 17.2
2015-May-25 05:10 329 0 gusting 2 17.2
2015-May-25 05:05 346 0 gusting 4 17.2
2015-May-25 05:00 348 2 gusting 4 17.2
2015-May-25 04:55 347 1 gusting 4 17.2
2015-May-25 04:50 355 1 gusting 2 17.2
2015-May-25 04:45 355 0 gusting 2 17.2
2015-May-25 04:40 355 1 gusting 2 17.2
2015-May-25 04:35 355 1 gusting 2 17.2
2015-May-25 04:30 355 1 gusting 2 17.2
2015-May-25 04:25 355 17.2
2015-May-25 04:20 355 0 gusting 2 17.2
2015-May-25 04:15 355 2 gusting 2 17.2
2015-May-25 04:10 355 1 gusting 2 17.2
2015-May-25 04:05 355 1 gusting 2 17.2
2015-May-25 04:00 355 2 gusting 4 16.7
2015-May-25 03:55 004 2 gusting 2 16.7
2015-May-25 03:50 344 1 gusting 2 16.7
2015-May-25 03:45 065 0 gusting 2 16.7
2015-May-25 03:40 065 1 gusting 2 16.7
2015-May-25 03:35 065 0 gusting 2 16.7
2015-May-25 03:30 065 0 gusting 1 16.7
2015-May-25 03:25 065 0 gusting 2 16.7
2015-May-25 03:20 065 1 gusting 2 16.7
2015-May-25 03:15 065 1 gusting 2 16.7
2015-May-25 03:10 065 16.7
2015-May-25 03:05 065 16.7
2015-May-25 03:00 065 16.7
2015-May-25 02:55 065 17.2
2015-May-25 02:50 065 17.2
2015-May-25 02:45 065 0 gusting 2 17.2
2015-May-25 02:40 065 16.7
2015-May-25 02:35 065 0 gusting 1 16.7
2015-May-25 02:30 065 16.7
2015-May-25 02:25 065 0 gusting 1 17.2
2015-May-25 02:20 065 1 gusting 1 17.2
2015-May-25 02:15 065 1 gusting 2 17.2
2015-May-25 02:10 065 1 gusting 2 17.2
2015-May-25 02:05 065 17.2
2015-May-25 02:00 065 17.2
2015-May-25 01:55 065 17.2
2015-May-25 01:50 065 17.2
2015-May-25 01:45 065 17.2
2015-May-25 01:40 065 17.2
2015-May-25 01:35 065 17.2
2015-May-25 01:30 065 17.8
2015-May-25 01:25 065 17.8
2015-May-25 01:20 065 17.8
2015-May-25 01:15 065 0 gusting 2 17.8
2015-May-25 01:10 267 0 gusting 2 17.8
2015-May-25 01:05 267 17.8
2015-May-25 01:00 267 17.8
2015-May-25 00:55 267 17.8
2015-May-25 00:50 267 17.8
2015-May-25 00:45 267 17.8
2015-May-25 00:40 267 17.8
2015-May-25 00:35 267 17.8
2015-May-25 00:30 267 17.8
2015-May-25 00:25 267 17.8
2015-May-25 00:20 267 17.8
2015-May-25 00:15 267 17.8
2015-May-25 00:10 267 18.3
2015-May-25 00:05 267 18.3
2015-May-25 00:00 267 18.3
2015-May-24 23:55 267 18.3
2015-May-24 23:50 267 18.3
2015-May-24 23:45 267 18.3
2015-May-24 23:40 267 18.3
2015-May-24 23:35 267 18.3
2015-May-24 23:30 267 1 gusting 2 18.3
2015-May-24 23:25 267 0 gusting 2 18.3
2015-May-24 23:20 267 18.3
2015-May-24 23:15 267 1 gusting 2 18.3
2015-May-24 23:10 267 1 gusting 2 18.3
2015-May-24 23:05 267 1 gusting 4 18.9
2015-May-24 23:00 290 1 gusting 2 18.9
2015-May-24 22:55 279 1 gusting 2 18.9
2015-May-24 22:50 291 2 gusting 4 18.9
2015-May-24 22:45 297 2 gusting 5 18.9
2015-May-24 22:40 281 3 gusting 6 18.9
2015-May-24 22:35 284 2 gusting 6 18.9
2015-May-24 22:30 291 4 gusting 7 19.4
2015-May-24 22:25 285 5 gusting 10 19.4
2015-May-24 22:20 293 4 gusting 8 19.4
2015-May-24 22:15 274 5 gusting 10 19.4
2015-May-24 22:10 265 6 gusting 10 19.4
2015-May-24 22:05 298 4 gusting 6 19.4
2015-May-24 22:00 291 2 gusting 6 19.4
2015-May-24 21:55 272 1 gusting 5 19.4
2015-May-24 21:50 295 2 gusting 5 19.4
2015-May-24 21:45 294 3 gusting 6 19.4
2015-May-24 21:40 297 2 gusting 6 19.4
2015-May-24 21:35 287 3 gusting 6 19.4
2015-May-24 21:30 285 4 gusting 6 19.4
2015-May-24 21:20 284 3 gusting 5 19.4
2015-May-24 21:15 279 3 gusting 5 19.4
2015-May-24 21:10 278 1 gusting 5 19.4
2015-May-24 21:05 279 1 gusting 2 19.4
2015-May-24 21:00 282 0 gusting 2 19.4
2015-May-24 20:55 275 2 gusting 2 19.4
2015-May-24 20:50 188 0 gusting 2 19.4
2015-May-24 20:45 188 0 gusting 2 19.4
2015-May-24 20:40 188 0 gusting 2 20.0
2015-May-24 20:35 186 20.0
2015-May-24 20:30 179 20.0
2015-May-24 20:25 180 1 gusting 4 20.0
2015-May-24 20:20 202 2 gusting 2 20.0
2015-May-24 20:15 157 1 gusting 4 20.0
2015-May-24 20:10 188 2 gusting 4 20.0
2015-May-24 20:05 200 1 gusting 6 20.0
2015-May-24 20:00 171 2 gusting 4 20.0
2015-May-24 19:55 123 0 gusting 4 20.0
2015-May-24 19:50 136 2 gusting 6 20.0
2015-May-24 19:45 149 3 gusting 6 20.0
2015-May-24 19:40 164 4 gusting 7 20.0
2015-May-24 19:35 148 2 gusting 6 20.0
2015-May-24 19:30 146 4 gusting 8 20.0
2015-May-24 19:25 169 5 gusting 8 20.6
2015-May-24 19:20 153 6 gusting 7 20.6
2015-May-24 19:15 151 4 gusting 6 20.6
2015-May-24 19:10 130 3 gusting 6 20.6
2015-May-24 19:05 160 2 gusting 6 20.6
2015-May-24 19:00 149 4 gusting 7 20.6
2015-May-24 18:55 139 4 gusting 7 20.6
2015-May-24 18:50 155 4 gusting 8 21.1
2015-May-24 18:45 148 5 gusting 7 21.1
2015-May-24 18:40 168 5 gusting 8 21.1
2015-May-24 18:35 167 5 gusting 10 21.1
2015-May-24 18:30 143 6 gusting 10 21.1
2015-May-24 18:25 152 5 gusting 7 21.1
2015-May-24 18:20 139 3 gusting 8 21.7
2015-May-24 18:15 153 6 gusting 8 21.7
2015-May-24 18:10 130 4 gusting 8 21.7
2015-May-24 18:05 140 6 gusting 11 21.7
2015-May-24 18:00 144 6 gusting 10 21.7
2015-May-24 17:55 140 4 gusting 7 21.7
2015-May-24 17:50 154 6 gusting 12 21.7
2015-May-24 17:45 139 7 gusting 10 22.2
2015-May-24 17:40 162 7 gusting 13 22.2
2015-May-24 17:35 170 5 gusting 10 22.2
2015-May-24 17:30 143 6 gusting 12 22.2
2015-May-24 17:25 188 6 gusting 12 22.2
2015-May-24 17:20 165 8 gusting 11 22.2
2015-May-24 17:15 159 6 gusting 10 22.8
2015-May-24 17:10 211 6 gusting 12 22.8
2015-May-24 17:05 218 7 gusting 13 22.8
2015-May-24 17:00 178 6 gusting 13 22.8
2015-May-24 16:55 204 7 gusting 12 22.8
2015-May-24 16:50 187 5 gusting 10 23.3
2015-May-24 16:45 185 6 gusting 12 23.3
2015-May-24 16:40 186 5 gusting 10 23.9
2015-May-24 16:30 244 4 gusting 10 23.3
2015-May-24 16:25 229 7 gusting 13 23.3
2015-May-24 16:20 195 6 gusting 11 23.3
2015-May-24 16:15 224 6 gusting 12 23.9
2015-May-24 16:10 218 5 gusting 7 23.9
2015-May-24 16:05 217 6 gusting 10 23.9
2015-May-24 16:00 185 6 gusting 8 23.9
2015-May-24 15:55 216 5 gusting 10 23.9
2015-May-24 15:50 188 5 gusting 10 23.9
2015-May-24 15:40 193 6 gusting 11 23.3
2015-May-24 15:30 177 5 gusting 11 23.3
2015-May-24 15:15 178 4 gusting 8 23.9
2015-May-24 15:10 210 6 gusting 11 23.3
2015-May-24 15:05 183 4 gusting 10 23.3
2015-May-24 15:00 190 7 gusting 11 23.3
2015-May-24 14:55 176 6 gusting 11 23.3
2015-May-24 14:50 178 4 gusting 7 23.3
2015-May-24 14:45 176 5 gusting 12 23.3
2015-May-24 14:40 137 6 gusting 10 22.8
2015-May-24 14:35 145 6 gusting 11 22.8
2015-May-24 14:30 169 6 gusting 11 22.8
2015-May-24 14:25 150 6 gusting 10 22.8
2015-May-24 14:20 146 6 gusting 12 23.3
2015-May-24 14:15 176 6 gusting 10 23.3
2015-May-24 14:10 133 6 gusting 11 23.3
2015-May-24 14:05 164 6 gusting 10 23.3
2015-May-24 14:00 173 6 gusting 12 23.3
2015-May-24 13:55 136 6 gusting 10 23.3
2015-May-24 13:50 176 5 gusting 8 23.3
2015-May-24 13:45 149 6 gusting 10 23.3
2015-May-24 13:40 143 6 gusting 10 23.3
2015-May-24 13:35 148 5 gusting 11 23.3
2015-May-24 13:30 138 6 gusting 12 23.9
2015-May-24 13:25 162 6 gusting 10 23.9
2015-May-24 13:20 144 6 gusting 12 23.9
2015-May-24 13:15 123 7 gusting 11 23.3
2015-May-24 13:10 169 4 gusting 8 23.3
2015-May-24 13:05 141 5 gusting 8 23.3
2015-May-24 13:00 134 6 gusting 11 23.9
2015-May-24 12:55 132 2 gusting 10 23.9
2015-May-24 12:50 183 5 gusting 10 23.9
2015-May-24 12:45 189 4 gusting 8 23.3
2015-May-24 12:40 192 5 gusting 10 23.9
2015-May-24 12:35 154 5 gusting 8 23.9
2015-May-24 12:30 180 4 gusting 10 23.3
2015-May-24 12:25 211 5 gusting 10 23.3
2015-May-24 12:20 248 5 gusting 10 23.3
2015-May-24 12:15 197 5 gusting 10 23.3
2015-May-24 12:10 213 5 gusting 10 22.8
2015-May-24 12:05 224 6 gusting 10 22.8
2015-May-24 12:00 196 5 gusting 10 22.8
2015-May-24 11:55 186 5 gusting 13 22.8
2015-May-24 11:50 241 6 gusting 13 22.8
2015-May-24 11:45 232 5 gusting 10 22.2
2015-May-24 11:40 225 6 gusting 13 22.2
2015-May-24 11:35 221 6 gusting 11 22.2
2015-May-24 11:30 266 7 gusting 11 22.2
2015-May-24 11:25 203 6 gusting 10 22.2
2015-May-24 11:20 240 6 gusting 11 21.7
2015-May-24 11:15 240 6 gusting 11 22.2
2015-May-24 11:10 235 8 gusting 15 21.7
2015-May-24 11:05 246 5 gusting 13 21.7
2015-May-24 11:00 243 9 gusting 13 21.7
2015-May-24 10:55 264 7 gusting 15 21.7
2015-May-24 10:50 227 5 gusting 11 22.2
2015-May-24 10:45 262 6 gusting 12 22.2
2015-May-24 10:40 226 6 gusting 10 22.2
2015-May-24 10:35 222 6 gusting 12 21.7
2015-May-24 10:30 239 6 gusting 10 21.7
2015-May-24 10:25 239 6 gusting 10 21.7
2015-May-24 10:20 218 3 gusting 10 21.7
2015-May-24 10:15 246 4 gusting 7 21.7
2015-May-24 10:10 252 6 gusting 10 21.7
2015-May-24 10:05 255 3 gusting 6 21.7
2015-May-24 10:00 221 3 gusting 6 21.7
2015-May-24 09:55 245 5 gusting 10 21.1
2015-May-24 09:50 208 2 gusting 10 21.1
2015-May-24 09:45 232 6 gusting 10 21.1
2015-May-24 09:40 250 4 gusting 10 20.6
2015-May-24 09:35 224 4 gusting 6 20.6
2015-May-24 09:30 205 5 gusting 8 20.6
2015-May-24 09:20 243 4 gusting 6 21.1
2015-May-24 09:15 237 5 gusting 7 21.1
2015-May-24 09:10 237 2 gusting 8 20.6
2015-May-24 09:05 246 2 gusting 8 21.1
2015-May-24 09:00 239 4 gusting 6 20.6
2015-May-24 08:55 252 5 gusting 7 20.6
2015-May-24 08:50 209 5 gusting 8 20.6
2015-May-24 08:45 179 4 gusting 7 20.0
2015-May-24 08:40 238 4 gusting 7 20.0
2015-May-24 08:35 205 20.0
2015-May-24 08:30 273 3 gusting 5 20.0
2015-May-24 08:25 216 2 gusting 5 20.0
2015-May-24 08:20 284 1 gusting 4 20.0
2015-May-24 08:15 279 2 gusting 5 19.4
2015-May-24 08:10 280 3 gusting 4 19.4
2015-May-24 08:05 277 1 gusting 2 19.4
2015-May-24 08:00 294 1 gusting 2 19.4
2015-May-24 07:55 058 19.4
2015-May-24 07:50 058 18.9
2015-May-24 07:45 058 18.9
2015-May-24 07:40 058 18.9
2015-May-24 07:35 058 0 gusting 2 18.9
2015-May-24 07:30 346 1 gusting 2 18.9
2015-May-24 07:25 347 1 gusting 4 18.9
2015-May-24 07:20 343 3 gusting 5 18.3
2015-May-24 07:15 354 4 gusting 5 18.3
2015-May-24 07:10 348 2 gusting 5 18.3
2015-May-24 07:05 344 1 gusting 5 17.8
2015-May-24 07:00 355 2 gusting 4 17.8
2015-May-24 06:55 342 1 gusting 2 17.8
2015-May-24 06:50 355 1 gusting 2 17.2
2015-May-24 06:45 355 17.2
2015-May-24 06:40 355 17.2
2015-May-24 06:35 355 16.7
2015-May-24 06:30 355 0 gusting 2 16.7
2015-May-24 06:25 355 1 gusting 2 16.7
2015-May-24 06:20 355 16.7
2015-May-24 06:15 355 1 gusting 2 16.7
2015-May-24 06:10 355 1 gusting 4 16.7
2015-May-24 06:05 346 1 gusting 4 16.1
2015-May-24 06:00 319 1 gusting 2 16.1
2015-May-24 05:55 281 1 gusting 2 16.1
2015-May-24 05:50 281 0 gusting 2 16.7
2015-May-24 05:45 281 0 gusting 2 16.7
2015-May-24 05:40 281 1 gusting 2 16.7
2015-May-24 05:35 281 1 gusting 4 16.7
2015-May-24 05:30 281 2 gusting 2 16.7
2015-May-24 05:25 298 1 gusting 6 16.7
2015-May-24 05:20 311 2 gusting 5 16.7
2015-May-24 05:15 300 2 gusting 4 17.2
2015-May-24 05:10 290 1 gusting 2 17.2
2015-May-24 05:05 324 2 gusting 4 17.2
2015-May-24 05:00 326 2 gusting 6 17.2
2015-May-24 04:55 323 2 gusting 6 17.2
2015-May-24 04:50 332 3 gusting 6 17.2
2015-May-24 04:45 328 3 gusting 6 17.2
2015-May-24 04:40 333 4 gusting 5 17.2
2015-May-24 04:35 335 4 gusting 5 17.2
2015-May-24 04:30 322 3 gusting 6 17.2
2015-May-24 04:25 322 3 gusting 6 16.7
2015-May-24 04:20 325 2 gusting 5 16.7
2015-May-24 04:15 323 2 gusting 5 16.7
2015-May-24 04:10 323 2 gusting 5 16.7
2015-May-24 04:05 315 2 gusting 5 16.7
2015-May-24 04:00 312 2 gusting 5 16.7
2015-May-24 03:55 323 2 gusting 2 16.7
2015-May-24 03:50 315 2 gusting 4 16.7
2015-May-24 03:45 307 1 gusting 2 16.7
2015-May-24 03:40 307 1 gusting 2 16.7
2015-May-24 03:35 327 2 gusting 4 16.7
2015-May-24 03:30 281 1 gusting 2 16.7
2015-May-24 03:25 281 16.7
2015-May-24 03:20 281 1 gusting 2 16.7
2015-May-24 03:15 281 1 gusting 2 17.2
2015-May-24 03:10 281 1 gusting 2 17.2
2015-May-24 03:05 152 17.2
2015-May-24 03:00 152 0 gusting 1 17.2
2015-May-24 02:55 152 17.2
2015-May-24 02:50 152 17.2
2015-May-24 02:45 152 17.2
2015-May-24 02:40 152 17.2
2015-May-24 02:35 152 17.2
2015-May-24 02:30 152 17.2
2015-May-24 02:25 152 17.2
2015-May-24 02:20 152 17.2
2015-May-24 02:15 152 17.8
2015-May-24 02:10 152 17.8
2015-May-24 02:05 152 17.8
2015-May-24 02:00 152 17.8
2015-May-24 01:55 152 17.8
2015-May-24 01:50 152 17.8
2015-May-24 01:45 158 17.8
2015-May-24 01:40 158 0 gusting 2 17.8
2015-May-24 01:35 192 17.8
2015-May-24 01:30 171 1 gusting 4 17.8
2015-May-24 01:25 155 17.8
2015-May-24 01:20 155 0 gusting 2 17.8
2015-May-24 01:15 155 0 gusting 2 17.8
2015-May-24 01:10 139 1 gusting 2 17.8
2015-May-24 01:05 126 17.8
2015-May-24 01:00 126 0 gusting 2 17.8
2015-May-24 00:55 017 17.8
2015-May-24 00:50 017 17.8
2015-May-24 00:45 017 18.3
2015-May-24 00:40 017 18.3
2015-May-24 00:35 005 2 gusting 2 18.3
2015-May-24 00:30 321 1 gusting 2 18.3
2015-May-24 00:25 321 2 gusting 2 18.3
2015-May-24 00:20 321 2 gusting 2 18.3
2015-May-24 00:15 321 1 gusting 2 18.3
2015-May-24 00:10 321 1 gusting 2 18.3
2015-May-24 00:05 321 1 gusting 2 18.3
2015-May-24 00:00 321 0 gusting 2 18.3
2015-May-23 23:55 321 1 gusting 2 18.3
2015-May-23 23:50 321 1 gusting 2 18.3
2015-May-23 23:45 321 1 gusting 2 18.3
2015-May-23 23:40 321 1 gusting 2 18.3
2015-May-23 23:35 321 1 gusting 2 18.3
2015-May-23 23:30 321 0 gusting 2 18.3
2015-May-23 23:25 321 1 gusting 2 18.3
2015-May-23 23:20 287 1 gusting 2 18.3
2015-May-23 23:15 269 1 gusting 2 18.3
2015-May-23 23:10 269 18.3
2015-May-23 23:05 269 18.3
2015-May-23 23:00 269 0 gusting 1 18.3
2015-May-23 22:55 269 18.3
2015-May-23 22:50 269 18.9
2015-May-23 22:45 269 18.9
2015-May-23 22:40 269 18.9
2015-May-23 22:35 269 0 gusting 2 18.9
2015-May-23 22:30 269 1 gusting 2 18.9
2015-May-23 22:25 281 1 gusting 6 18.9
2015-May-23 22:20 264 4 gusting 6 18.9
2015-May-23 22:15 258 3 gusting 6 19.4
2015-May-23 22:10 266 4 gusting 6 19.4
2015-May-23 22:05 242 3 gusting 6 19.4
2015-May-23 22:00 247 1 gusting 4 19.4
2015-May-23 21:55 248 3 gusting 6 19.4
2015-May-23 21:50 270 3 gusting 6 19.4
2015-May-23 21:45 276 2 gusting 6 19.4
2015-May-23 21:40 249 5 gusting 7 19.4
2015-May-23 21:35 264 5 gusting 7 19.4
2015-May-23 21:30 269 4 gusting 6 19.4
2015-May-23 21:20 254 3 gusting 6 19.4
2015-May-23 21:15 268 4 gusting 8 19.4
2015-May-23 21:10 252 5 gusting 10 19.4
2015-May-23 21:05 271 5 gusting 8 20.0
2015-May-23 21:00 257 6 gusting 10 20.0